sat.trackr.live / text

‹ back to catalog

NANOSAT-1

NORAD 28493 · 2004-049B

PAYLOAD ACTIVE UNKNOWN

§ Identity

Operator
Country
SPN
Launch date
2004-12-18
Launch site
FRGUI
Launch vehicle
Mass (kg)
RCS (m²)
0.27

External: N2YO · Heavens-Above · Gunter

§ Orbital elements

Epoch: 2026-09-19T14:27:45.326016Z

Period
97.28 min
Inclination
98.2414°
Eccentricity
0.0003939
Mean motion
14.80314856 rev/d
Perigee alt
625.6 km
Apogee alt
631.1 km
Semi-major
7,006.5 km
B*
8.9539e-5
RAAN
41.6566°
Arg perigee
8.2830°
Mean anomaly
351.8445°
Rev number
16,941

§ Raw data

NANOSAT-11 28493U 04049B   26262.60260794  .00000627  00000+0  89539-4 0  99972 28493  98.2414  41.6566 0003939   8.2830 351.8445 14.80314856169410

JSON: /api/v1/satellites/28493 · /tle

For live sub-satellite position, see the globe view (requires WebGL).

§ Visibility from observer

Set your observer location to see the next 7 days of passes ≥ 10°. The values pass through the URL so the page stays shareable.

No JS? Fill the form by hand. The geolocation button needs JavaScript.